Flag for Germany Weather past 2 weeks in Mülheim / Ruhr, North Rhine-Westphalia, Germany

Now
68 °F

Sunny.


Feels Like: 68 °F
Forecast: 52 / 76 °F
Wind: 6 mph from North

Location: Duesseldorf

Current Time: Jul 31, 2015 at 4:23:26 PM

Latest Report: Jul 31, 2015 at 3:50 PM


Visibility: 10 mi

Pressure: 30.07 "Hg

Humidity: 38%

Dew point: 41 °F

Location of Mülheim / RuhrLocation

Historic Weather in Mülheim / Ruhr — Graph

°F

Mülheim / Ruhr temperature yesterday

Maximum temperature yesterday: 66 °F (at 1:20 PM)
Minimum temperature yesterday: 50 °F (at 2:20 AM)
Average temperature yesterday: 57 °F

Past Weeks' High & Low Weather Summary

 TemperatureHumidityPressure
High91 °F (Jul 17, 4:50 PM)100% (Jul 20, 6:20 AM)30.15 "Hg (Jul 20, 6:20 AM)
Low45 °F (Jul 31, 4:50 AM)26% (Jul 17, 4:50 PM)29.50 "Hg (Jul 25, 6:50 AM)
Average66 °F70%29.88 "Hg
* Reported Jul 16 3:20 PM — Jul 31 3:20 PM, Mülheim / Ruhr, Weather by CustomWeather, © 2015

Note: Actual official high and low records may vary slightly from our data, if they occured in-between our weather recording intervals... More about our weather records

Advertising

Mülheim / Ruhr weather history for previous 24 hours

 ConditionsComfort  
Time TempWeatherWind HumidityBarometerVisibility
3:20 PM
Fri, Jul 31
68 °FSunny.6 mph38%30.09 "Hg10 mi
2:50 PM66 °FSunny.2 mph40%30.09 "Hg10 mi
2:20 PM64 °FSunny.5 mph43%30.09 "Hg10 mi
1:50 PM64 °FPartly sunny.1 mph43%30.12 "HgN/A
1:20 PM64 °FScattered clouds.3 mph43%30.12 "HgN/A
12:50 PM63 °FScattered clouds.2 mph52%30.12 "HgN/A
12:20 PM63 °FPassing clouds.3 mph49%30.12 "HgN/A
11:50 AM63 °FPassing clouds.2 mph52%30.15 "HgN/A
11:20 AM61 °FPassing clouds.2 mph59%30.15 "HgN/A
10:50 AM59 °FPassing clouds.3 mph63%30.15 "HgN/A
10:20 AM59 °FPassing clouds.2 mph63%30.15 "HgN/A
9:20 AM57 °FPassing clouds.3 mph72%30.15 "HgN/A
8:50 AM55 °FPassing clouds.2 mph77%30.15 "HgN/A
8:20 AM54 °FSunny.3 mph88%30.15 "Hg10 mi
7:50 AM52 °FSunny.2 mph94%30.15 "Hg10 mi
7:20 AM48 °FSunny.2 mph100%30.12 "Hg10 mi
6:50 AM46 °FFog.1 mph93%30.12 "HgN/A
6:20 AM45 °FFog.1 mph100%30.12 "HgN/A
5:50 AM45 °FFog.No wind93%30.12 "HgN/A
5:20 AM45 °FFog.1 mph93%30.12 "HgN/A
4:50 AM45 °FFog.1 mph93%30.12 "HgN/A
4:20 AM46 °FFog.1 mph93%30.12 "HgN/A
3:50 AM46 °FFog.1 mph93%30.12 "HgN/A
3:20 AM46 °FFog.1 mph93%30.12 "HgN/A
2:50 AM48 °FFog.1 mph87%30.12 "HgN/A
2:20 AM48 °FFog.1 mph87%30.12 "HgN/A
1:50 AM50 °FPassing clouds.1 mph88%30.12 "HgN/A
1:20 AM52 °FPassing clouds.1 mph82%30.12 "HgN/A
12:50 AM54 °FPassing clouds.3 mph77%30.09 "HgN/A
12:20 AM55 °FClear.5 mph82%30.09 "Hg10 mi
11:20 PM
Thu, Jul 30
57 °FClear.6 mph82%30.09 "Hg10 mi
10:50 PM57 °FPassing clouds.6 mph82%30.09 "HgN/A
10:20 PM57 °FLight rain. Partly sunny.6 mph82%30.07 "HgN/A
9:50 PM57 °FBroken clouds.7 mph88%30.07 "HgN/A
9:20 PM57 °FPartly sunny.6 mph88%30.07 "HgN/A
8:50 PM59 °FBroken clouds.6 mph77%30.07 "HgN/A
8:20 PM59 °FPartly sunny.6 mph77%30.04 "HgN/A
7:50 PM59 °FScattered showers. Broken clouds.6 mph77%30.04 "HgN/A
7:20 PM59 °FScattered showers. Partly sunny.5 mph77%30.04 "HgN/A
6:50 PM59 °FSprinkles. Broken clouds.7 mph77%30.04 "HgN/A
6:20 PM59 °FSprinkles. Broken clouds.3 mph82%30.04 "HgN/A
5:50 PM61 °FSprinkles. Partly sunny.10 mph63%30.01 "HgN/A
5:20 PM64 °FScattered showers. Partly sunny.6 mph52%30.01 "HgN/A
4:50 PM64 °FPartly sunny.6 mph52%30.01 "HgN/A
4:20 PM63 °FPartly sunny.8 mph56%30.01 "HgN/A
Weather by CustomWeather, © 2015

See weather overviewHow to use our weather pages